This demonstration page uses our WeatherBlox Daily Observations layout. Learn more.

Hourly Observations for February 9, 2018

Temp ( °F °C ) Dew Point ( °F °C ) Humidity (%) Winds ( mph kmh ) Pressure ( in mb ) Visibility ( mi km ) Precip ( " mm )
12:15 am 00:15 Partly Cloudy 17 -8.5 16 -9 96 96 NNE 17 28 30.18 1022 7 11.26538 0 0
12:35 am 00:35 Partly Cloudy 17 -8.3 16 -8.8 96 96 NNE 16 26 30.21 1023 7 11.26538 0 0
12:55 am 00:55 Partly Cloudy 17 -8.6 15 -9.2 95 95 NNE 17 28 30.21 1023 7 11.26538 0 0
1:15 am 01:15 Mostly Cloudy 17 -8.5 16 -9 96 96 NNE 16 26 30.21 1023 7 11.26538 0 0
1:35 am 01:35 Cloudy with Mist and Fog 17 -8.1 16 -8.7 96 96 NNE 17 28 30.24 1024 5 8.0467 0 0
1:55 am 01:55 Partly Cloudy with Mist and Fog 17 -8.3 16 -9 95 95 N 16 26 30.24 1024 5 8.0467 0 0
2:15 am 02:15 Mostly Cloudy with Mist and Fog 18 -8 17 -8.5 96 96 NNE 17 28 30.27 1025 5 8.0467 0 0
2:35 am 02:35 Cloudy with Mist and Fog 19 -7.5 17 -8.1 96 96 NNE 21 33 30.27 1025 5 8.0467 0 0
2:55 am 02:55 Cloudy with Mist and Fog 18 -7.8 17 -8.5 95 95 NNE 26 43 30.3 1026 4 6.43736 0 0
3:15 am 03:15 Cloudy with Mist and Fog 17 -8.6 15 -9.6 93 93 NNE 21 33 30.3 1026 5 8.0467 0 0
3:35 am 03:35 Cloudy 16 -9 14 -10 93 93 NNE 18 30 30.3 1026 7 11.26538 0 0
3:55 am 03:55 Cloudy 15 -9.5 13 -10.6 92 92 NNE 23 37 30.3 1026 7 11.26538 0 0
4:15 am 04:15 Mostly Cloudy 15 -9.5 13 -10.8 90 90 NNE 21 33 30.3 1026 7 11.26538 0 0
4:35 am 04:35 Mostly Cloudy 14 -9.9 12 -11.2 90 90 N 21 33 30.33 1027 10 16.0934 0 0
4:55 am 04:55 Mostly Cloudy 14 -10.1 11 -11.5 90 90 N 22 35 30.33 1027 10 16.0934 0 0
5:15 am 05:15 Windy with Snow Likely 13 -10.3 11 -11.8 89 89 N 20 31 30.36 1028 10 16.0934 0 0
5:35 am 05:35 Cloudy 14 -10.1 10 -12 86 86 NNE 22 35 30.36 1028 10 16.0934 0 0
5:55 am 05:55 Cloudy 13 -10.5 10 -12.1 88 88 N 18 30 30.39 1029 10 16.0934 0 0
6:15 am 06:15 Windy with Snow Likely 13 -10.6 10 -12.2 88 88 N 21 33 30.42 1030 7 11.26538 0 0
6:35 am 06:35 Cloudy with Light Snow 12 -11 10 -12.5 89 89 NNE 18 30 30.42 1030 7 11.26538 0 0
6:55 am 06:55 Windy with Snow Likely 12 -11.1 9 -12.8 87 87 NNE 20 31 30.42 1030 7 11.26538 0 0
7:15 am 07:15 Cloudy 12 -11.2 9 -12.9 87 87 NNE 17 28 30.42 1030 10 16.0934 0 0
7:35 am 07:35 Cloudy with Light Snow 12 -11 9 -12.6 88 88 NNE 17 28 30.45 1031 10 16.0934 0 0
7:55 am 07:55 Cloudy with Light Snow 12 -11.1 9 -12.8 87 87 NNE 16 26 30.42 1030 7 11.26538 0 0
8:15 am 08:15 Cloudy with Light Snow 12 -11.1 9 -12.8 87 87 NNE 17 28 30.45 1031 5 8.0467 0 0
8:35 am 08:35 Cloudy with Light Snow 12 -11 9 -12.6 88 88 NNE 16 26 30.45 1031 5 8.0467 0 0
8:55 am 08:55 Windy with Snow Likely 12 -11.2 9 -13 87 87 NNE 21 33 30.48 1032 7 11.26538 0 0
9:15 am 09:15 Windy with Snow Likely 12 -11 9 -12.8 87 87 NNE 20 31 30.45 1031 10 16.0934 0 0
9:35 am 09:35 Cloudy with Light Snow 13 -10.5 10 -12.5 85 85 NNE 16 26 30.45 1031 10 16.0934 0 0
9:55 am 09:55 Cloudy 13 -10.5 9 -12.7 84 84 NNE 16 26 30.48 1032 10 16.0934 0 0
10:15 am 10:15 Cloudy 13 -10.5 9 -12.6 85 85 N 17 28 30.48 1032 10 16.0934 0 0
10:35 am 10:35 Cloudy with Light Snow 13 -10.5 9 -12.6 85 85 N 14 22 30.48 1032 7 11.26538 0 0
10:55 am 10:55 Cloudy with Light Snow 13 -10.5 9 -12.9 83 83 N 16 26 30.48 1032 7 11.26538 0 0
11:15 am 11:15 Cloudy 13 -10.3 9 -12.9 81 81 NNE 18 30 30.48 1032 10 16.0934 0 0
11:35 am 11:35 Cloudy with Light Snow 14 -10.2 9 -12.7 82 82 N 15 24 30.48 1032 10 16.0934 0 0
11:55 am 11:55 Cloudy 13 -10.3 9 -12.9 81 81 NNE 17 28 30.45 1031 10 16.0934 0 0
12:15 pm 12:15 Cloudy 14 -10.2 9 -12.8 81 81 NNE 16 26 30.42 1030 10 16.0934 0 0
12:35 pm 12:35 Mostly Cloudy 14 -9.9 9 -12.6 81 81 NNE 17 28 30.39 1029 10 16.0934 0 0
12:55 pm 12:55 Mostly Cloudy 14 -9.9 9 -12.7 80 80 NNE 17 28 30.39 1029 10 16.0934 0 0
1:15 pm 13:15 Mostly Cloudy 14 -10 9 -12.9 80 80 N 16 26 30.39 1029 10 16.0934 0 0
1:35 pm 13:35 Cloudy 13 -10.4 8 -13.2 80 80 NNE 15 24 30.39 1029 10 16.0934 0 0
1:55 pm 13:55 Cloudy 13 -10.5 8 -13.1 81 81 NNE 15 24 30.36 1028 10 16.0934 0 0
2:15 pm 14:15 Cloudy 13 -10.3 9 -12.8 82 82 NNE 17 28 30.36 1028 10 16.0934 0 0
2:35 pm 14:35 Cloudy with Light Snow 13 -10.5 9 -13 82 82 N 18 30 30.33 1027 7 11.26538 0 0
2:55 pm 14:55 Cloudy 13 -10.5 8 -13.1 81 81 N 17 28 30.33 1027 10 16.0934 0 0
3:15 pm 15:15 Cloudy 13 -10.7 8 -13.2 82 82 NNE 15 24 30.33 1027 10 16.0934 0 0
3:35 pm 15:35 Cloudy 13 -10.7 8 -13.3 81 81 N 16 26 30.36 1028 10 16.0934 0 0
3:55 pm 15:55 Cloudy 13 -10.8 8 -13.3 82 82 NNE 16 26 30.36 1028 10 16.0934 0 0
4:15 pm 16:15 Cloudy 12 -10.9 8 -13.5 81 81 N 17 28 30.39 1029 10 16.0934 0 0
4:35 pm 16:35 Cloudy 12 -11.1 8 -13.6 82 82 NNE 21 33 30.39 1029 10 16.0934 0 0
4:55 pm 16:55 Windy with Snow Likely 12 -11.2 8 -13.5 83 83 NNE 20 31 30.39 1029 7 11.26538 0 0
5:15 pm 17:15 Cloudy 11 -11.5 7 -13.8 83 83 N 17 28 30.42 1030 10 16.0934 0 0
5:35 pm 17:35 Cloudy 10 -12 6 -14.4 83 83 NNE 22 35 30.42 1030 10 16.0934 0 0
5:55 pm 17:55 Cloudy 10 -12.2 6 -14.5 83 83 NNE 17 28 30.42 1030 10 16.0934 0 0
6:15 pm 18:15 Cloudy with Light Snow 10 -12.2 6 -14.3 85 85 NNE 15 24 30.42 1030 10 16.0934 0 0
6:35 pm 18:35 Cloudy 10 -12.3 6 -14.6 83 83 NNE 17 28 30.42 1030 10 16.0934 0 0
6:55 pm 18:55 Cloudy 10 -12.5 6 -14.5 85 85 NNE 18 30 30.45 1031 7 11.26538 0 0
7:15 pm 19:15 Cloudy 9 -12.7 5 -14.8 84 84 N 22 35 30.45 1031 7 11.26538 0 0
7:35 pm 19:35 Cloudy 8 -13.1 4 -15.5 82 82 NNE 18 30 30.5 1033 10 16.0934 0 0
7:55 pm 19:55 Cloudy 8 -13.3 4 -15.5 84 84 N 18 30 30.5 1033 10 16.0934 0 0
8:15 pm 20:15 Cloudy 8 -13.5 3 -15.9 82 82 N 17 28 30.5 1033 10 16.0934 0 0
8:35 pm 20:35 Windy with Snow Likely 8 -13.6 4 -15.7 84 84 NNE 21 33 30.5 1033 7 11.26538 0 0
8:55 pm 20:55 Cloudy with Light Snow 7 -14 3 -16 85 85 N 18 30 30.5 1033 5 8.0467 0 0
9:15 pm 21:15 Cloudy with Light Snow 7 -14.1 3 -16 86 86 NNE 17 28 30.5 1033 2.5 4.02335 0 0
9:35 pm 21:35 Cloudy with Light Snow 6 -14.4 3 -16 88 88 N 18 30 30.53 1034 1.75 2.816345 0 0
9:55 pm 21:55 Cloudy with Light Snow 6 -14.5 3 -16.1 88 88 N 17 28 30.5 1033 2.5 4.02335 0 0
10:15 pm 22:15 Cloudy with Light Snow 6 -14.5 3 -16.1 88 88 N 16 26 30.5 1033 3 4.82802 0 0
10:35 pm 22:35 Cloudy with Light Snow 6 -14.5 3 -16.2 87 87 N 16 26 30.53 1034 2 3.21868 0 0
10:55 pm 22:55 Cloudy with Light Snow 6 -14.5 3 -16.1 88 88 N 15 24 30.5 1033 3 4.82802 0 0
11:15 pm 23:15 Cloudy with Light Snow 6 -14.5 3 -16.1 88 88 N 12 19 30.5 1033 2.5 4.02335 0 0
11:35 pm 23:35 Cloudy with Light Snow 6 -14.5 3 -16.1 88 88 N 15 24 30.5 1033 3 4.82802 0 0
11:55 pm 23:55 Cloudy with Light Snow 6 -14.5 3 -16.2 87 87 N 15 24 30.5 1033 4 6.43736 0 0

Powered by AerisWeather